{"data":{"norad_id":62252,"intl_designator":"2024-232R","name":"QIANFAN-51","alt_names":[],"object_type":"PAYLOAD","status":"ACTIVE","operator":null,"country":"PRC","launch_date":"2024-12-05","launch_site_code":"TAISC","launch_vehicle":null,"mission":null,"orbit_class":"UNKNOWN","rcs_meters":null,"size_class":null,"mass_kg":null,"dimensions":null,"purposes":[],"wikipedia_slug":null,"has_3d_model":false,"image_url":null,"decayed_at":null,"tle_current":{"epoch":"2026-05-25T03:47:54.314592Z","epoch_age_seconds":71755,"freshness":"FRESH","line1":"1 62252U 24232R   26145.15826753  .00000089  00000+0  11898-3 0  9991","line2":"2 62252  89.0100  24.8124 0015342  86.9213 273.3693 13.51009709 89928","mean_motion":13.51009709,"eccentricity":0.0015342,"inclination_deg":89.01,"raan_deg":24.8124,"arg_perigee_deg":86.9213,"mean_anomaly_deg":273.3693,"bstar":0.00011898,"rev_number":8992,"period_min":106.5869468152,"perigee_km":1057.121207171,"apogee_km":1079.9706090062,"semimajor_km":7446.6829080886,"source":"CELESTRAK","updated_at":"2026-05-25T13:38:02.869281Z"}}}